User: anonymous   Login
Location: Fort Wayne
(41.1310°N, 85.1290°W)
Time: 06:19:19
(UTC-04:00)
Language:

Helios 1B - Orbit

View from above orbital plane
View from above orbital plane
View from above satellite
View from above satellite

Ground track
Ground track

The orbit data is extracted from the following two-line orbital elements,

1 25977U 99064A   15142.27791894  .00001131  00000-0  15139-3 0  9996
2 25977 098.1409 230.2849 0001326 150.3544 209.7743 14.81459485831907
Epoch (UTC): 22 May 2015 06:40:12
Eccentricity: 0.0001326
inclination: 98.1409°
perigee height: 624 km
apogee height: 625 km
right ascension of ascending node: 230.2849°
argument of perigee: 150.3544°
revolutions per day: 14.81459485
mean anomaly at epoch: 209.7743°
orbit number at epoch: 83190

The dashed part of the orbit path shows where the satellite is in the earth's shadow,  

DLR